Tracking 29892 objects as of 21-Nov-2024
HD Live streaming from Space Station
objects crossing your sky now

STARLINK-4540

Track STARLINK-4540 now!
10-day predictions
STARLINK-4540 is classified as:


NORAD ID: 53428
Int'l Code: 2022-097AS
Perigee: 452.0 km
Apogee: 453.8 km
Inclination: 53.2 °
Period: 93.5 minutes
Semi major axis: 6823 km
RCS: Unknown
Launch date: August 10, 2022
Source: United States (US)
Launch site: AIR FORCE EASTERN TEST RANGE (AFETR)
Your satellite tracking list
Your tracking list is empty




NASA's NSSDC Master Catalog

Two Line Element Set (TLE):
1 53428U 22097AS  24325.91668981  .01193062  00000-0  26639-1 0  9995
2 53428  53.2173  69.3856 0001361  73.5377 262.6846 15.40117686  5698
Source of the keplerian elements: AFSPC